Location: Arborea
(39.7744°N, 8.5819°E)
Time: 23:49:48
(UTC+00:00)

Cosmos 1000 Rocket - Pass Details

Date: 03 October 2023
Orbit: 952 x 993 km, 82.9° (Epoch: 03 December)

Event Time Altitude Azimuth Distance (km) Brightness Sun altitude
Exits shadow 20:22:25 20° 8° (N) 2,121 6.4 -37.3°
Drops below altitude 10° 20:24:11 10° 8° (N) 2,764 7.1 -37.6°
Sets 20:26:43 0° 8° (N) 3,716 7.8 -38.0°
